Regional Weather Roundup
Issued by NWS Jackson, KY

Home | Current Version | Previous Version | Text Only | Print | Product List | Glossary Off
Versions: 1 2 3 4 5 6 7 8 9 10 11 12 13 14 15 16 17 18 19 20 21 22 23 24 25 26 27 28 29 30 31 32 33 34 35 36 37 38 39 40 41 42 43 44 45 46 47 48 49 50

000
ASUS43 KJKL 042010
RWRJKL

EAST KENTUCKY HOURLY WEATHER ROUNDUP
NATIONAL WEATHER SERVICE JACKSON KY
300 PM EST WED MAR 04 2015

NOTE: "FAIR" INDICATES FEW OR NO CLOUDS BELOW 12,000 FEET WITH
NO SIGNIFICANT WEATHER AND/OR OBSTRUCTIONS TO VISIBILITY.

* THESE REPORTS ARE NOT UNDER NWS QUALITY CONTROL AND MAY NOT
  REPORT WEATHER SUCH AS PRECIPITATION AND FOG.

KYZ079-080-083-085-087-088-110-112-115-119-120-042100
...EASTERN KENTUCKY...

CITY           SKY/WX    TMP DP  RH WIND       PRES   REMARKS
JACKSON        RAIN      45  43  93 VRB5      29.90F FOG
LONDON         LGT RAIN  48  45  89 N9        29.89F FOG
SOMERSET*      LGT RAIN  43  43 100 NE12      29.91F
MONTICELLO*    CLOUDY    46  46 100 NE13      29.92F FOG
MIDDLESBORO*   DRIZZLE   50  50 100 CALM      29.88F
HAZARD APT*    RAIN      50  50 100 NW3       29.89F
BLACK MTN*       N/A     41  41 100 N7          N/A
PIKEVILLE APT* RAIN      50  48  93 CALM      29.89F
BIG SANDY*     RAIN      48  47  98 NE8       29.90F
MOREHEAD APT*  RAIN      39  37  93 NW7       29.97S WCI  34
$$

KYZ035-036-041-042-044-050-067-078-099-042100
...CENTRAL KENTUCKY...

CITY           SKY/WX    TMP DP  RH WIND       PRES   REMARKS
MT STERLING*   DRIZZLE   37  37 100 N8        29.97F WCI  31
FLEMING/MASON* RAIN      34  34 100 N8        29.99R WCI  27
DANVILLE*      CLOUDY    37  37 100 N13       29.95F WCI  29
RICHMOND*      CLOUDY    41  39  93 N7        29.94F
LEXINGTON      LGT RAIN  36  34  92 N14       29.96F WCI  27
FRANKFORT      RAIN      35  33  92 N12       29.97F FOG     WCI  27
$$

KYZ091>093-OHZ055-061-077-WVZ005-015-034-035-042-042100
...SOUTHERN OHIO/WEST VIRGINIA...

CITY           SKY/WX    TMP DP  RH WIND       PRES   REMARKS
COVINGTON      LGT SNOW  34  31  88 NW6       30.00R FOG     WCI  29
COLUMBUS       CLOUDY    34  29  82 NW9       29.97S WCI  27
DAYTON         CLOUDY    34  27  75 NW12      30.01F HAZE    WCI  25
WILMINGTON     CLOUDY    34  28  79 NW13      29.97F HAZE    WCI  25
HUNTINGTON     RAIN      40  39  97 NW5       29.94F FOG
CHARLESTON     RAIN      42  40  92 NW7       29.93S FOG
PINEVILLE*     HVY RAIN  43  43 100 MISG      29.95R VSB 1/2
BECKLEY        LGT RAIN  46  46 100 CALM      29.89S VSB 1/2
BLUEFIELD      LGT RAIN  49  45  86 CALM      29.91R FOG
$$

VAZ002-007-008-TNZ017-027-036-066-071-042100
...SOUTHWEST VIRGINIA/EAST TENNESSEE...

CITY           SKY/WX    TMP DP  RH WIND       PRES   REMARKS
WISE*          HVY RAIN  46  46 100 CALM      29.90F
JONESVILLE*    LGT RAIN  45  45 100 CALM      29.89F VSB 1/4
ABINGDON*      CLOUDY    58  58 100 CALM      29.85F
BRISTOL        CLOUDY    70  55  59 W20G29    29.82F
KNOXVILLE      PTSUNNY   71  59  65 SW24G36   29.81F
OAK RIDGE      CLOUDY    69  59  70 SW10G18   29.81F
CROSSVILLE     RAIN      52  50  93 NE6       29.86F FOG
NASHVILLE      RAIN      43  41  93 N16       29.91F FOG
$$

...KEY TO REMARKS...
VSB - VISIBILITY IN MILES
WCI - WIND CHILL INDEX
HX  - HEAT INDEX

$$



USA.gov is the U.S. government's official web portal to all federal, state and local government web resources and services.